Location: Alsip
(41.6689°N, 87.7387°W)
Time: 09:44:21
(UTC+00:00)

GEOS 3 Rocket - Pass Details

Date: 27 October 2020
Orbit: 770 x 850 km, 115.0° (Epoch: 03 December)

Event Time Altitude Azimuth Distance (km) Brightness Sun altitude
Exits shadow 02:14:20 28° 267° (W) 1,535 5.4 -38.0°
Drops below altitude 10° 02:17:47 10° 304° (NW) 2,459 6.8 -38.6°
Sets 02:20:25 0° 315° (NW) 3,406 7.6 -39.0°
